Brisbane, Australia

7:25 PM AEST on April 27, 2017 (GMT +1000)
Brisbane International

Weather History for YBBN - July, 2013

Change the Weather History Date:

Thursday, July 25, 2013

  Actual Average Record
Temperature  
Mean Temperature 60 °F -  
Max Temperature 68 °F 71 °F 75 °F (2015)
Min Temperature 52 °F 50 °F 39 °F (2003)
Degree Days  
Heating Degree Days 5    
Growing Degree Days 10 (Base 50)    
Moisture  
Dew Point 49 °F    
Average Humidity 64    
Maximum Humidity 82    
Minimum Humidity 43    
Precipitation  
Precipitation 0.00 in 0.07 in - ()
Sea Level Pressure  
Sea Level Pressure 30.27 in    
Wind  
Wind Speed 8 mph ()    
Max Wind Speed 14 mph    
Max Gust Speed -    
Visibility 8.2 miles    
Events      
Averages and records for this station are not official NWS values.
T = Trace of Precipitation, MM = Missing Value Source: Averaged Metar Reports

Daily Weather History Graph

Daily Weather History Graph

Search for Another Location

Airport or City:

Trip Planner

Search our weather history database for the weather conditions in past years. The results will help you decide how hot, cold, wet, or windy it might be!

Date:

Astronomy

Jul. 25, 2013 Rise Set
Actual Time 6:32 AM AEST 5:15 PM AEST
Civil Twilight 6:07 AM AEST 5:40 PM AEST
Nautical Twilight 5:39 AM AEST 6:08 PM AEST
Astronomical Twilight 5:11 AM AEST 6:36 PM AEST
Moon 8:04 PM AEST (7/25) 7:58 AM AEST (7/25)
Length of Visible Light 11h 32m
Length of Day
10h 42m
Waning Gibbous, 92% of the Moon is Illuminated
Jul 25
Waning Gibbous
Jul 30
Last Quarter
Aug 7
New
Aug 14
First Quarter
Aug 21
Full

Hourly Weather History & Observations

Time (AEST) Temp. Dew Point Humidity Pressure Visibility Wind Dir Wind Speed Gust Speed Precip Events Conditions
12:00 AM 54 °F 47 °F 72% 30.25 in 19 mi SSW 8.1 mph - -   Partly Cloudy
12:00 AM 53.6 °F 48.2 °F 82% 30.24 in - SSW 8.1 mph - N/A   Clear
12:30 AM 53.6 °F 46.4 °F 77% 30.24 in 6.2 mi SSW 8.1 mph - N/A   Mostly Cloudy
1:00 AM 55 °F 46 °F 63% 30.25 in - SSW 8.1 mph - -  
1:00 AM 55.4 °F 46.4 °F 72% 30.24 in - SSW 8.1 mph - N/A   Clear
1:30 AM 55.4 °F 46.4 °F 72% 30.24 in 6.2 mi SSW 9.2 mph - N/A   Mostly Cloudy
2:00 AM 55.4 °F 46.4 °F 72% 30.21 in 6.2 mi SSW 8.1 mph - N/A   Mostly Cloudy
2:30 AM 55.4 °F 46.4 °F 72% 30.21 in 6.2 mi SSW 9.2 mph - N/A   Mostly Cloudy
3:00 AM 56 °F 46 °F 60% 30.24 in 19 mi SSW 8.1 mph - -   Partly Cloudy
3:00 AM 55.4 °F 46.4 °F 72% 30.21 in 6.2 mi SSW 8.1 mph - N/A   Mostly Cloudy
3:30 AM 57.2 °F 44.6 °F 63% 30.21 in 6.2 mi SSW 8.1 mph - N/A   Mostly Cloudy
4:00 AM 56 °F 46 °F 60% 30.24 in - SSW 8.1 mph - -  
4:00 AM 55.4 °F 46.4 °F 72% 30.21 in 6.2 mi SSW 8.1 mph - N/A   Mostly Cloudy
4:30 AM 53.6 °F 46.4 °F 77% 30.21 in 6.2 mi SSW 8.1 mph - N/A   Scattered Clouds
5:00 AM 53.6 °F 44.6 °F 72% 30.24 in - SSW 6.9 mph - N/A   Clear
5:30 AM 53.6 °F 44.6 °F 72% 30.24 in - SSW 6.9 mph - N/A   Clear
6:00 AM 54 °F 44 °F 60% 30.26 in 19 mi SSW 9.2 mph - -   Partly Cloudy
6:00 AM 53.6 °F 44.6 °F 72% 30.24 in - SSW 9.2 mph - N/A   Clear
6:30 AM 53.6 °F 44.6 °F 72% 30.27 in 6.2 mi SSW 8.1 mph - N/A   Partly Cloudy
7:00 AM 53 °F 45 °F 65% 30.29 in - SSW 9.2 mph - -  
7:00 AM 53.6 °F 44.6 °F 72% 30.27 in 6.2 mi SSW 9.2 mph - N/A   Partly Cloudy
7:30 AM 57.2 °F 44.6 °F 63% 30.27 in - SSW 10.4 mph - N/A   Clear
8:00 AM 57.2 °F 44.6 °F 63% 30.30 in 6.2 mi SSW 11.5 mph - N/A   Scattered Clouds
8:30 AM 59.0 °F 44.6 °F 59% 30.30 in 6.2 mi SSW 12.7 mph - N/A   Mostly Cloudy
9:00 AM 60 °F 45 °F 47% 30.32 in 19 mi SSW 11.5 mph - -   Partly Cloudy
9:00 AM 60.8 °F 44.6 °F 55% 30.30 in 6.2 mi SSW 11.5 mph - N/A   Mostly Cloudy
9:30 AM 62.6 °F 44.6 °F 52% 30.30 in 6.2 mi SSW 13.8 mph - N/A   Scattered Clouds
10:00 AM 63 °F 46 °F 43% 30.33 in - SSW 12.7 mph - -  
10:00 AM 62.6 °F 46.4 °F 55% 30.33 in 6.2 mi SSW 12.7 mph - N/A   Mostly Cloudy
10:30 AM 64.4 °F 46.4 °F 52% 30.33 in 6.2 mi SSW 11.5 mph - N/A   Mostly Cloudy
11:00 AM 64.4 °F 50.0 °F 59% 30.30 in 6.2 mi South 10.4 mph - N/A   Scattered Clouds
11:30 AM 66.2 °F 50.0 °F 56% 30.30 in 6.2 mi South 12.7 mph - N/A   Scattered Clouds
12:00 PM 68 °F 50 °F 43% 30.28 in 19 mi SSE 10.4 mph - -   Partly Cloudy
12:00 PM 68.0 °F 50.0 °F 52% 30.27 in 6.2 mi SSE 10.4 mph - N/A   Scattered Clouds
12:30 PM 66.2 °F 50.0 °F 56% 30.27 in 6.2 mi SE 11.5 mph - N/A   Scattered Clouds
1:00 PM 68 °F 51 °F 44% 30.26 in - ESE 10.4 mph - -  
1:00 PM 68.0 °F 51.8 °F 56% 30.24 in 6.2 mi ESE 10.4 mph - N/A   Scattered Clouds
1:30 PM 68.0 °F 50.0 °F 52% 30.24 in 6.2 mi South 8.1 mph - N/A   Partly Cloudy
2:00 PM 68.0 °F 51.8 °F 56% 30.24 in 6.2 mi ESE 9.2 mph - N/A   Scattered Clouds
2:30 PM 68.0 °F 53.6 °F 60% 30.24 in 6.2 mi ESE 12.7 mph - N/A   Scattered Clouds
3:00 PM 67 °F 55 °F 55% 30.25 in 19 mi ESE 9.2 mph - -   Partly Cloudy
3:00 PM 66.2 °F 55.4 °F 68% 30.24 in 6.2 mi ESE 9.2 mph - N/A   Mostly Cloudy
3:30 PM 66.2 °F 51.8 °F 60% 30.24 in 6.2 mi ESE 9.2 mph - N/A   Mostly Cloudy
4:00 PM 66 °F 52 °F 51% 30.26 in - SE 10.4 mph - -  
4:00 PM 66.2 °F 51.8 °F 60% 30.24 in 6.2 mi SE 10.4 mph - N/A   Mostly Cloudy
4:30 PM 64.4 °F 51.8 °F 64% 30.24 in 6.2 mi SE 6.9 mph - N/A   Scattered Clouds
5:00 PM 64.4 °F 51.8 °F 64% 30.27 in 6.2 mi SE 4.6 mph - N/A   Scattered Clouds
5:30 PM 64.4 °F 53.6 °F 68% 30.27 in 6.2 mi SSE 5.8 mph - N/A   Mostly Cloudy
6:00 PM 64 °F 52 °F 56% 30.29 in 19 mi SE 5.8 mph - -   Partly Cloudy
6:00 PM 64.4 °F 51.8 °F 64% 30.27 in 6.2 mi SE 5.8 mph - N/A   Mostly Cloudy
6:30 PM 64.4 °F 51.8 °F 64% 30.30 in 6.2 mi SE 5.8 mph - N/A   Mostly Cloudy
7:00 PM 64 °F 52 °F 57% 30.32 in - SSE 8.1 mph - -  
7:00 PM 64.4 °F 51.8 °F 64% 30.30 in 6.2 mi SSE 8.1 mph - N/A   Mostly Cloudy
7:30 PM 62.6 °F 51.8 °F 68% 30.30 in 6.2 mi SSE 8.1 mph - N/A   Mostly Cloudy
8:00 PM 62.6 °F 51.8 °F 68% 30.33 in 6.2 mi South 8.1 mph - N/A   Mostly Cloudy
8:30 PM 62.6 °F 53.6 °F 72% 30.33 in 6.2 mi SSW 8.1 mph - N/A   Mostly Cloudy
9:00 PM 61 °F 53 °F 69% 30.34 in 19 mi South 4.6 mph - -   Partly Cloudy
9:00 PM 60.8 °F 53.6 °F 77% 30.33 in 6.2 mi South 4.6 mph - N/A   Mostly Cloudy
9:30 PM 60.8 °F 53.6 °F 77% 30.33 in 6.2 mi South 5.8 mph - N/A   Mostly Cloudy
10:00 PM 61 °F 53 °F 68% 30.34 in - South 5.8 mph - -  
10:00 PM 60.8 °F 53.6 °F 77% 30.33 in 6.2 mi South 5.8 mph - N/A   Light Drizzle
10:30 PM 60.8 °F 53.6 °F 77% 30.33 in 6.2 mi SSW 6.9 mph - N/A   Mostly Cloudy
11:00 PM 60.8 °F 53.6 °F 77% 30.33 in 6.2 mi South 6.9 mph - N/A   Mostly Cloudy
11:30 PM 60.8 °F 53.6 °F 77% 30.30 in 6.2 mi SSW 6.9 mph - N/A   Mostly Cloudy